Location: Ostrava
(49.8330°N, 18.2830°E)
Time: 16:55:51
(UTC+01:00)

Transit 2A - All Passes

Search period start: 30 October 2014 00:00
Search period end: 09 November 2014 00:00
Orbit: 598 x 964 km, 66.7° (Epoch: 29 October)

Date Brightness Start Highest point End Pass type
(mag) Time Alt. Az. Time Alt. Az. Time Alt. Az.
30 Oct - 01:00:22 10° S 01:04:15 31° ESE 01:08:25 10° NE visible
30 Oct - 02:43:00 10° WSW 02:47:18 43° NW 02:51:59 10° NNE visible
30 Oct - 04:29:06 10° NW 04:31:54 15° NNW 04:34:50 10° NNE visible
30 Oct - 06:15:14 10° NNW 06:17:22 12° N 06:19:35 10° NNE daylight
30 Oct - 07:58:13 10° NNW 08:02:31 24° NNE 08:07:08 10° E daylight
30 Oct - 09:41:00 10° NW 09:46:29 83° NE 09:52:29 10° SE daylight
30 Oct - 11:25:08 10° WNW 11:29:15 21° WSW 11:33:36 10° SSW daylight
31 Oct - 00:27:31 10° SSE 00:30:54 22° ESE 00:34:29 10° ENE night (unlit)
31 Oct - 02:09:13 10° SW 02:13:38 58° NW 02:18:28 10° NNE visible
31 Oct - 03:54:48 10° WNW 03:57:58 17° NNW 04:01:20 10° NNE visible
31 Oct - 05:41:25 10° NNW 05:43:22 12° N 05:45:23 10° NNE visible
31 Oct - 07:24:44 10° NNW 07:28:40 21° NNE 07:32:52 10° ENE daylight
31 Oct - 09:07:28 10° NNW 09:12:52 64° NE 09:18:48 10° SE daylight
31 Oct - 10:51:08 10° NW 10:55:52 29° WSW 11:00:55 10° S daylight
31 Oct - 23:55:03 10° SE 23:57:36 15° ESE 00:00:14 10° ENE night (unlit)
01 Nov - 01:35:33 10° SW 01:40:01 80° NW 01:44:55 10° NE visible
01 Nov - 03:20:34 10° WNW 03:24:05 21° NNW 03:27:51 10° NNE visible
01 Nov - 05:07:25 10° NNW 05:09:22 12° N 05:11:22 10° NNE visible
01 Nov - 06:51:15 10° NNW 06:54:47 18° NNE 06:58:31 10° ENE daylight
01 Nov - 08:33:57 10° NNW 08:39:13 50° NE 08:44:59 10° ESE daylight
01 Nov - 10:17:19 10° NW 10:22:26 38° WSW 10:27:58 10° S daylight
02 Nov - 01:02:02 10° SSW 01:06:28 73° ESE 01:11:19 10° NE visible
02 Nov - 02:46:25 10° W 02:50:15 25° NNW 02:54:22 10° NNE visible
02 Nov - 04:33:15 10° NNW 04:35:22 13° N 04:37:33 10° NNE visible
02 Nov - 06:17:44 10° NNW 06:20:51 16° NNE 06:24:08 10° NE daylight
02 Nov - 08:00:28 10° NNW 08:05:32 39° NE 08:11:03 10° ESE daylight
02 Nov - 09:43:36 10° NW 09:48:58 51° WSW 09:54:48 10° SSE daylight
03 Nov - 00:28:41 10° SSW 00:32:59 51° ESE 00:37:40 10° NE night (unlit)
03 Nov - 02:12:22 10° W 02:16:27 31° NW 02:20:53 10° NNE visible
03 Nov - 03:58:58 10° NW 04:01:22 13° NNW 04:03:52 10° NNE visible
03 Nov - 05:44:10 10° NNW 05:46:54 14° NNE 05:49:44 10° NE visible
03 Nov - 07:26:59 10° NNW 07:31:47 32° NE 07:37:00 10° E daylight
03 Nov - 09:09:57 10° NW 09:15:27 69° WSW 09:21:28 10° SSE daylight
03 Nov - 10:55:11 10° WNW 10:57:54 14° WSW 11:00:43 10° SW daylight
03 Nov - 23:55:30 10° S 23:59:33 36° ESE 00:03:55 10° NE night (unlit)
04 Nov - 01:38:25 10° WSW 01:42:42 39° NW 01:47:23 10° NNE visible
04 Nov - 03:24:39 10° NW 03:27:24 15° NNW 03:30:17 10° NNE visible
04 Nov - 05:10:32 10° NNW 05:12:54 13° N 05:15:23 10° NE visible
04 Nov - 06:53:30 10° NNW 06:58:00 26° NE 07:02:51 10° E daylight
04 Nov - 08:36:21 10° NW 08:41:54 89° SW 08:47:58 10° SE daylight
04 Nov - 10:20:41 10° WNW 10:24:35 19° WSW 10:28:40 10° SSW daylight
04 Nov - 23:22:32 10° SSE 23:26:10 25° ESE 23:30:03 10° ENE night (unlit)
05 Nov - 01:04:35 10° SW 01:09:01 52° NW 01:13:52 10° NNE visible
05 Nov - 02:50:21 10° WNW 02:53:28 17° NNW 02:56:46 10° NNE visible
05 Nov - 04:36:46 10° NNW 04:38:54 12° N 04:41:07 10° NNE visible
05 Nov - 06:20:01 10° NNW 06:24:10 22° NNE 06:28:36 10° E daylight
05 Nov - 08:02:48 10° NNW 08:08:18 71° NE 08:14:20 10° SE daylight
05 Nov - 09:46:37 10° WNW 09:51:13 26° WSW 09:56:06 10° SSW daylight
05 Nov - 22:49:53 10° SSE 22:52:51 18° ESE 22:55:57 10° ENE night (unlit)
06 Nov - 00:30:53 10° SW 00:35:23 72° NW 00:40:20 10° NE visible
06 Nov - 02:16:06 10° WNW 02:19:33 20° NNW 02:23:16 10° NNE visible
06 Nov - 04:02:50 10° NNW 04:04:54 12° N 04:07:02 10° NNE visible
06 Nov - 05:46:32 10° NNW 05:50:17 19° NNE 05:54:17 10° ENE visible
06 Nov - 07:29:16 10° NNW 07:34:39 55° NE 07:40:33 10° SE daylight
06 Nov - 09:12:44 10° NW 09:17:48 35° WSW 09:23:14 10° S daylight
06 Nov - 22:17:53 10° SE 22:19:34 12° ESE 22:21:18 10° E night (unlit)
06 Nov - 23:57:19 10° SSW 00:01:48 83° SE 00:06:44 10° NE night (unlit)
07 Nov - 01:41:55 10° W 01:45:42 23° NNW 01:49:46 10° NNE visible
07 Nov - 03:28:43 10° NNW 03:30:53 13° N 03:33:08 10° NNE visible
07 Nov - 05:13:01 10° NNW 05:16:22 17° NNE 05:19:55 10° ENE visible
07 Nov - 06:55:45 10° NNW 07:00:58 43° NE 07:06:39 10° ESE daylight
07 Nov - 08:38:59 10° NW 08:44:20 47° WSW 08:50:08 10° S daylight
07 Nov - 23:23:53 10° SSW 23:28:17 59° ESE 23:33:06 10° NE night (unlit)
08 Nov - 01:07:49 10° W 01:11:52 29° NW 01:16:17 10° NNE visible
08 Nov - 02:54:29 10° NW 02:56:53 13° N 02:59:23 10° NNE visible
08 Nov - 04:39:27 10° NNW 04:42:25 15° NNE 04:45:31 10° NE visible
08 Nov - 06:22:16 10° NNW 06:27:15 35° NE 06:32:39 10° ESE daylight
08 Nov - 08:05:18 10° NW 08:10:50 62° WSW 08:16:51 10° SSE daylight
08 Nov - 09:51:03 10° W 09:53:12 12° WSW 09:55:24 10° SW daylight
08 Nov - 22:50:38 10° S 22:54:50 41° ESE 22:59:23 10° NE night (unlit)
